SNAP-3 JIMI

Last updated on Wed Nov 05 2025 00:03:48 GMT+0000 (Coordinated Universal Time)

1 40975U 15058M 25308.43215486 .00006580 00000+0 48030-3 0 9991 2 40975 64.7662 209.2557 0118857 146.9563 213.9054 14.98956826 80495
UTC large
Height (km)
Speed (km/s)
/
Latitude / Longitude
Inclination (degrees)
Orbital Period (minutes)
Azimuth
Elevation
Range (km)
Doppler Factor

Next 0 passes for location: London (51.5072 / 0.1276)

Sorry there are no passes over London.